When you browse on this site, cookies collect data to enhance your experience and personalize the content and advertising you see.
Visit our Privacy Policy to learn more. By continuing to use the site, you agree to this use of cookies and data.
  • In Hungary
  • List of Countries
  • For 7 days
  • Water Temperature
  • Weather Map
  • News
  • Weather Widgets
  • user-avatar
    Login

    Hourly Weather Edmonds

    Today, 13 November, Wednesday

    Time Temperature Precipitation Wind Pressure Humidity
    00:00 +9°C° 0 mm 0 mps 764 mmHg 93%
    01:00 +10°C° 0 mm 1 mps 764 mmHg 94%
    02:00 +9°C° 0 mm 1 mps 764 mmHg 94%
    03:00 +8°C° 0 mm 0 mps 764 mmHg 95%
    04:00 +8°C° 0 mm 0 mps 765 mmHg 95%
    05:00 +7°C° 0 mm 0 mps 764 mmHg 95%
    06:00 +7°C° 0 mm 0 mps 764 mmHg 95%
    07:00 +7°C° 0 mm 0 mps 764 mmHg 96%
    08:00 +8°C° 0 mm 0 mps 764 mmHg 92%
    09:00 +9°C° 0 mm 0 mps 764 mmHg 87%
    10:00 +12°C° 0 mm 1 mps 764 mmHg 83%
    11:00 +12°C° 0 mm 1 mps 763 mmHg 80%
    12:00 +13°C° 0 mm 1 mps 763 mmHg 77%
    13:00 +14°C° 0 mm 2 mps 762 mmHg 75%
    14:00 +13°C° 0 mm 2 mps 762 mmHg 78%
    15:00 +12°C° 0 mm 2 mps 762 mmHg 81%
    16:00 +10°C° 0 mm 2 mps 762 mmHg 85%
    17:00 +9°C° 0 mm 2 mps 762 mmHg 87%
    18:00 +10°C° 0 mm 1 mps 762 mmHg 90%
    19:00 +9°C° 0 mm 1 mps 762 mmHg 92%
    20:00 +9°C° 0 mm 1 mps 762 mmHg 92%
    21:00 +8°C° 0 mm 1 mps 762 mmHg 91%
    22:00 +8°C° 0 mm 1 mps 762 mmHg 91%
    23:00 +7°C° 0 mm 0 mps 761 mmHg 90%

    Tomorrow, 14 November, Thursday

    Time Temperature Precipitation Wind Pressure Humidity
    00:00 +7°C° 0 mm 0 mps 761 mmHg 89%
    01:00 +7°C° 0 mm 0 mps 761 mmHg 88%
    02:00 +6°C° 0 mm 0 mps 761 mmHg 86%
    03:00 +6°C° 0 mm 0 mps 761 mmHg 85%
    04:00 +6°C° 0 mm 0 mps 761 mmHg 83%
    05:00 +6°C° 0 mm 0 mps 761 mmHg 82%
    06:00 +7°C° 0 mm 1 mps 761 mmHg 81%
    07:00 +7°C° 0 mm 1 mps 760 mmHg 80%
    08:00 +8°C° 0 mm 1 mps 760 mmHg 76%
    09:00 +10°C° 0 mm 1 mps 760 mmHg 71%
    10:00 +10°C° 0 mm 2 mps 760 mmHg 67%
    11:00 +12°C° 0 mm 2 mps 760 mmHg 65%
    12:00 +13°C° 0 mm 2 mps 760 mmHg 62%
    13:00 +14°C° 0 mm 2 mps 760 mmHg 59%
    14:00 +14°C° 0 mm 2 mps 759 mmHg 62%
    15:00 +13°C° 0 mm 2 mps 759 mmHg 64%
    16:00 +13°C° 0 mm 2 mps 759 mmHg 66%
    17:00 +12°C° 0 mm 3 mps 759 mmHg 68%
    18:00 +11°C° 0 mm 3 mps 759 mmHg 70%
    19:00 +11°C° 0 mm 3 mps 760 mmHg 72%
    20:00 +11°C° 0.5 mm 3 mps 760 mmHg 76%
    21:00 +12°C° 0.5 mm 2 mps 760 mmHg 80%
    22:00 +10°C° 0.5 mm 2 mps 760 mmHg 84%
    23:00 +10°C° 0.9 mm 2 mps 760 mmHg 86%

    Day after tomorrow, 15 November, Friday

    Time Temperature Precipitation Wind Pressure Humidity
    00:00 +10°C° 0.9 mm 3 mps 760 mmHg 89%
    01:00 +10°C° 0.9 mm 3 mps 760 mmHg 91%
    02:00 +11°C° 0.1 mm 3 mps 761 mmHg 92%
    03:00 +12°C° 0.1 mm 2 mps 761 mmHg 93%
    04:00 +12°C° 0.1 mm 2 mps 761 mmHg 93%
    05:00 +12°C° 0.3 mm 2 mps 761 mmHg 94%
    06:00 +12°C° 0.3 mm 1 mps 762 mmHg 94%
    07:00 +11°C° 0.3 mm 1 mps 762 mmHg 94%
    08:00 +12°C° 0.2 mm 1 mps 763 mmHg 91%
    09:00 +12°C° 0.2 mm 2 mps 763 mmHg 88%
    10:00 +13°C° 0.2 mm 2 mps 764 mmHg 85%
    11:00 +14°C° 0.2 mm 2 mps 764 mmHg 80%
    12:00 +14°C° 0.2 mm 2 mps 764 mmHg 75%
    13:00 +15°C° 0.2 mm 2 mps 764 mmHg 71%
    14:00 +14°C° 0.2 mm 2 mps 765 mmHg 73%
    15:00 +14°C° 0.2 mm 1 mps 765 mmHg 76%
    16:00 +13°C° 0.2 mm 1 mps 765 mmHg 79%
    17:00 +12°C° 0.1 mm 1 mps 766 mmHg 83%
    18:00 +11°C° 0.1 mm 1 mps 766 mmHg 87%
    19:00 +10°C° 0.1 mm 1 mps 767 mmHg 91%
    20:00 +10°C° 0 mm 1 mps 767 mmHg 92%
    21:00 +10°C° 0 mm 1 mps 768 mmHg 92%
    22:00 +9°C° 0 mm 1 mps 768 mmHg 93%
    23:00 +9°C° 0 mm 1 mps 768 mmHg 94%

    16 November, Saturday

    Time Temperature Precipitation Wind Pressure Humidity
    00:00 +9°C° 0 mm 1 mps 768 mmHg 94%
    01:00 +8°C° 0 mm 2 mps 769 mmHg 94%
    02:00 +8°C° 0 mm 2 mps 769 mmHg 94%
    03:00 +8°C° 0 mm 2 mps 769 mmHg 94%
    04:00 +8°C° 0 mm 2 mps 769 mmHg 94%
    05:00 +8°C° 0 mm 2 mps 769 mmHg 93%
    06:00 +8°C° 0 mm 2 mps 769 mmHg 92%
    07:00 +9°C° 0 mm 2 mps 769 mmHg 91%
    08:00 +9°C° 0 mm 2 mps 768 mmHg 87%
    09:00 +10°C° 0 mm 2 mps 768 mmHg 83%
    10:00 +12°C° 0 mm 2 mps 768 mmHg 79%
    11:00 +12°C° 0 mm 2 mps 768 mmHg 80%
    12:00 +12°C° 0 mm 2 mps 768 mmHg 80%
    13:00 +12°C° 0 mm 2 mps 767 mmHg 80%
    14:00 +10°C° 0 mm 2 mps 767 mmHg 79%
    15:00 +10°C° 0 mm 3 mps 766 mmHg 79%
    16:00 +10°C° 0 mm 3 mps 766 mmHg 78%
    17:00 +11°C° 0 mm 3 mps 765 mmHg 77%
    18:00 +11°C° 0 mm 3 mps 765 mmHg 76%
    19:00 +11°C° 0 mm 4 mps 765 mmHg 75%
    20:00 +11°C° 0 mm 4 mps 764 mmHg 73%
    21:00 +10°C° 0 mm 5 mps 764 mmHg 71%
    22:00 +12°C° 0 mm 5 mps 764 mmHg 70%
    23:00 +12°C° 0 mm 5 mps 763 mmHg 70%

    17 November, Sunday

    Time Temperature Precipitation Wind Pressure Humidity
    00:00 +12°C° 0 mm 5 mps 763 mmHg 70%
    01:00 +12°C° 0 mm 5 mps 763 mmHg 70%
    02:00 +12°C° 0.2 mm 4 mps 762 mmHg 72%
    03:00 +12°C° 0.2 mm 4 mps 762 mmHg 74%
    04:00 +12°C° 0.2 mm 3 mps 762 mmHg 76%
    05:00 +11°C° 2.2 mm 3 mps 762 mmHg 82%
    06:00 +12°C° 2.2 mm 2 mps 761 mmHg 87%
    07:00 +10°C° 2.2 mm 2 mps 761 mmHg 93%
    08:00 +11°C° 0.7 mm 3 mps 762 mmHg 92%
    09:00 +11°C° 0.7 mm 3 mps 762 mmHg 92%
    10:00 +11°C° 0.7 mm 3 mps 762 mmHg 92%
    11:00 +12°C° 0.2 mm 3 mps 762 mmHg 91%
    12:00 +13°C° 0.2 mm 2 mps 762 mmHg 91%
    13:00 +13°C° 0.2 mm 2 mps 761 mmHg 91%
    14:00 +13°C° 0.1 mm 2 mps 761 mmHg 92%
    15:00 +13°C° 0.1 mm 2 mps 761 mmHg 93%
    16:00 +13°C° 0.1 mm 1 mps 761 mmHg 94%
    17:00 +13°C° 0.1 mm 1 mps 761 mmHg 94%
    18:00 +13°C° 0.1 mm 1 mps 761 mmHg 95%
    19:00 +13°C° 0.1 mm 1 mps 762 mmHg 96%
    20:00 +12°C° 0.2 mm 1 mps 762 mmHg 96%
    21:00 +12°C° 0.2 mm 1 mps 762 mmHg 97%
    22:00 +12°C° 0.2 mm 1 mps 762 mmHg 97%
    23:00 +12°C° 0 mm 1 mps 761 mmHg 96%

    18 November, Monday

    Time Temperature Precipitation Wind Pressure Humidity
    00:00 +12°C° 0 mm 1 mps 761 mmHg 95%
    01:00 +12°C° 0 mm 1 mps 761 mmHg 95%
    02:00 +11°C° 0.1 mm 1 mps 761 mmHg 94%
    03:00 +10°C° 0.1 mm 0 mps 760 mmHg 92%
    04:00 +10°C° 0.1 mm 0 mps 760 mmHg 91%
    05:00 +11°C° 0.2 mm 1 mps 759 mmHg 91%
    06:00 +11°C° 0.2 mm 1 mps 758 mmHg 90%
    07:00 +11°C° 0.2 mm 1 mps 758 mmHg 90%
    08:00 +10°C° 0 mm 2 mps 757 mmHg 89%
    09:00 +10°C° 0 mm 2 mps 757 mmHg 88%
    10:00 +10°C° 0 mm 3 mps 756 mmHg 88%
    11:00 +10°C° 0.1 mm 3 mps 756 mmHg 87%
    12:00 +10°C° 0.1 mm 3 mps 755 mmHg 86%
    13:00 +10°C° 0.1 mm 3 mps 755 mmHg 86%
    14:00 +10°C° 0.2 mm 3 mps 755 mmHg 86%
    15:00 +10°C° 0.2 mm 3 mps 755 mmHg 86%
    16:00 +9°C° 0.2 mm 3 mps 754 mmHg 86%
    17:00 +9°C° 0.1 mm 3 mps 755 mmHg 87%
    18:00 +8°C° 0.1 mm 2 mps 755 mmHg 89%
    19:00 +9°C° 0.1 mm 1 mps 756 mmHg 90%
    20:00 +9°C° 0.2 mm 1 mps 756 mmHg 91%
    21:00 +9°C° 0.2 mm 1 mps 757 mmHg 92%
    22:00 +7°C° 0.2 mm 0 mps 757 mmHg 93%
    23:00 +8°C° 0.8 mm 1 mps 757 mmHg 92%
    Show more